N412WM KCHA-KDNN

Flight info

Callsign N412WM
Flight time N/A
Altitude
Route
Aircraft C172/L-DOV/C

Departure

Time 2026-04-27 00:07
Airport Chattanooga Metropolitan Airport (Lovell Field) (KCHA)

Arrival

Time N/A
Airport Dalton Municipal Airport (KDNN)
Time Latitude Longitude Altitude Speed Heading
2026-04-27 00:00 35.02622 -85.20359 677 ft 0 kts 107°
2026-04-27 00:02 35.02622 -85.20353 686 ft 4 kts 57°
2026-04-27 00:02 35.02648 -85.20374 686 ft 4 kts 321°
2026-04-27 00:02 35.02644 -85.20394 686 ft 7 kts 217°
2026-04-27 00:02 35.02618 -85.20456 686 ft 9 kts 279°
2026-04-27 00:03 35.02569 -85.20501 686 ft 12 kts 196°
2026-04-27 00:03 35.02479 -85.20532 686 ft 13 kts 194°
2026-04-27 00:03 35.02398 -85.20560 686 ft 11 kts 200°
2026-04-27 00:03 35.02324 -85.20589 686 ft 13 kts 199°
2026-04-27 00:04 35.02257 -85.20650 686 ft 6 kts 267°
2026-04-27 00:04 35.02257 -85.20654 686 ft 0 kts 274°
2026-04-27 00:05 35.02261 -85.20680 686 ft 10 kts 288°
2026-04-27 00:05 35.02289 -85.20736 687 ft 13 kts 344°
2026-04-27 00:05 35.02454 -85.20681 685 ft 45 kts 17°
2026-04-27 00:06 35.02861 -85.20540 735 ft 68 kts 15°
2026-04-27 00:06 35.03333 -85.20399 873 ft 73 kts 17°
2026-04-27 00:06 35.03827 -85.20221 979 ft 80 kts 19°
2026-04-27 00:06 35.04356 -85.19994 1209 ft 76 kts 17°
2026-04-27 00:07 35.04805 -85.19700 1432 ft 77 kts 49°
2026-04-27 00:07 35.04789 -85.19059 1577 ft 91 kts 127°
2026-04-27 00:07 35.04245 -85.18593 1777 ft 89 kts 135°
2026-04-27 00:07 35.03774 -85.18134 1999 ft 82 kts 134°
2026-04-27 00:08 35.03343 -85.17728 2189 ft 78 kts 137°
2026-04-27 00:08 35.02907 -85.17319 2336 ft 82 kts 137°
2026-04-27 00:08 35.02445 -85.16896 2470 ft 82 kts 137°
2026-04-27 00:08 35.01986 -85.16474 2606 ft 82 kts 138°
2026-04-27 00:09 35.01545 -85.16044 2773 ft 80 kts 136°
2026-04-27 00:09 35.01130 -85.15613 2964 ft 75 kts 133°
2026-04-27 00:09 35.00710 -85.15177 3050 ft 84 kts 134°
2026-04-27 00:09 35.00255 -85.14688 3168 ft 89 kts 135°
2026-04-27 00:10 34.99802 -85.14183 3344 ft 85 kts 134°
2026-04-27 00:10 34.99359 -85.13713 3504 ft 83 kts 135°
2026-04-27 00:10 34.98894 -85.13246 3557 ft 91 kts 140°
2026-04-27 00:10 34.98378 -85.12819 3590 ft 90 kts 142°
2026-04-27 00:11 34.97865 -85.12338 3559 ft 95 kts 135°
2026-04-27 00:11 34.97364 -85.11828 3585 ft 93 kts 137°
2026-04-27 00:11 34.96860 -85.11326 3590 ft 94 kts 137°
2026-04-27 00:11 34.96354 -85.10823 3593 ft 95 kts 137°
2026-04-27 00:12 34.95837 -85.10309 3597 ft 97 kts 137°
2026-04-27 00:12 34.95313 -85.09786 3596 ft 98 kts 138°
2026-04-27 00:12 34.94783 -85.09261 3591 ft 97 kts 136°
2026-04-27 00:12 34.94264 -85.08748 3594 ft 99 kts 137°
2026-04-27 00:13 34.93726 -85.08214 3591 ft 101 kts 137°
2026-04-27 00:13 34.93176 -85.07669 3590 ft 103 kts 137°
2026-04-27 00:13 34.92555 -85.07053 3586 ft 101 kts 137°
2026-04-27 00:13 34.92011 -85.06512 3592 ft 102 kts 137°
2026-04-27 00:14 34.91452 -85.05960 3594 ft 104 kts 137°
2026-04-27 00:14 34.90883 -85.05399 3590 ft 105 kts 137°
2026-04-27 00:14 34.90323 -85.04842 3587 ft 103 kts 137°
2026-04-27 00:14 34.89766 -85.04291 3583 ft 103 kts 137°
2026-04-27 00:15 34.89220 -85.03749 3585 ft 101 kts 137°
2026-04-27 00:15 34.88670 -85.03203 3585 ft 102 kts 139°
2026-04-27 00:15 34.88121 -85.02661 3591 ft 101 kts 137°
2026-04-27 00:15 34.87578 -85.02122 3592 ft 100 kts 139°
2026-04-27 00:16 34.87033 -85.01582 3592 ft 101 kts 138°
2026-04-27 00:16 34.86488 -85.01046 3594 ft 102 kts 138°
2026-04-27 00:16 34.85926 -85.00484 3609 ft 107 kts 138°
2026-04-27 00:16 34.85325 -84.99894 3605 ft 114 kts 138°
2026-04-27 00:17 34.84716 -84.99293 3607 ft 114 kts 139°
2026-04-27 00:17 34.84098 -84.98681 3609 ft 115 kts 139°
2026-04-27 00:17 34.83483 -84.98073 3610 ft 114 kts 139°
2026-04-27 00:17 34.82866 -84.97465 3612 ft 114 kts 139°
2026-04-27 00:18 34.82245 -84.96851 3607 ft 115 kts 139°
2026-04-27 00:18 34.81623 -84.96235 3533 ft 116 kts 140°
2026-04-27 00:18 34.80999 -84.95624 3378 ft 113 kts 140°
2026-04-27 00:18 34.80393 -84.95026 3231 ft 112 kts 139°
2026-04-27 00:19 34.79796 -84.94435 3083 ft 112 kts 139°
2026-04-27 00:19 34.79174 -84.93821 2846 ft 118 kts 139°
2026-04-27 00:19 34.78523 -84.93179 2613 ft 122 kts 139°
2026-04-27 00:19 34.77876 -84.92541 2512 ft 115 kts 139°
2026-04-27 00:20 34.77279 -84.91953 2496 ft 106 kts 140°
2026-04-27 00:20 34.76660 -84.91450 2364 ft 110 kts 146°
2026-04-27 00:20 34.76004 -84.90963 2120 ft 109 kts 145°
2026-04-27 00:20 34.75400 -84.90416 1838 ft 107 kts 140°
2026-04-27 00:21 34.74849 -84.89851 1620 ft 102 kts 135°
2026-04-27 00:21 34.74331 -84.89281 1422 ft 98 kts 135°
2026-04-27 00:21 34.73856 -84.88736 1201 ft 90 kts 137°
2026-04-27 00:21 34.73419 -84.88255 963 ft 79 kts 138°
2026-04-27 00:22 34.73020 -84.87821 798 ft 73 kts 139°
2026-04-27 00:22 34.72661 -84.87426 715 ft 61 kts 138°
2026-04-27 00:22 34.72361 -84.87097 709 ft 71 kts 137°
2026-04-27 00:22 34.71973 -84.86665 827 ft 80 kts 138°
2026-04-27 00:23 34.71564 -84.86211 1032 ft 77 kts 139°
2026-04-27 00:23 34.71168 -84.85765 1209 ft 79 kts 124°
2026-04-27 00:23 34.71186 -84.85156 1341 ft 76 kts 58°
2026-04-27 00:23 34.71455 -84.84611 1436 ft 74 kts 53°
2026-04-27 00:24 34.71860 -84.84280 1526 ft 73 kts 351°
2026-04-27 00:24 34.72283 -84.84620 1627 ft 76 kts 319°
2026-04-27 00:24 34.72636 -84.85112 1753 ft 78 kts 313°
2026-04-27 00:24 34.72971 -84.85660 1771 ft 81 kts 309°
2026-04-27 00:25 34.73278 -84.86258 1792 ft 84 kts 307°
2026-04-27 00:25 34.73591 -84.86874 1741 ft 90 kts 305°
2026-04-27 00:25 34.74011 -84.87454 1637 ft 92 kts 321°
2026-04-27 00:25 34.74465 -84.88020 1484 ft 99 kts 296°
2026-04-27 00:26 34.74307 -84.88798 1342 ft 103 kts 227°
2026-04-27 00:26 34.73710 -84.88886 1183 ft 88 kts 129°
2026-04-27 00:26 34.73397 -84.88304 961 ft 79 kts 127°
2026-04-27 00:26 34.73031 -84.87841 791 ft 76 kts 136°
2026-04-27 00:27 34.72662 -84.87431 716 ft 65 kts 136°
2026-04-27 00:27 34.72365 -84.87102 709 ft 67 kts 138°
2026-04-27 00:27 34.71988 -84.86673 814 ft 77 kts 136°
2026-04-27 00:27 34.71585 -84.86221 991 ft 80 kts 139°
2026-04-27 00:28 34.71166 -84.85777 1181 ft 80 kts 139°
2026-04-27 00:28 34.71101 -84.85163 1282 ft 87 kts 53°
2026-04-27 00:28 34.71491 -84.84580 1436 ft 90 kts 43°
2026-04-27 00:28 34.72048 -84.84646 1545 ft 94 kts 317°
2026-04-27 00:29 34.72388 -84.85331 1624 ft 93 kts 305°
2026-04-27 00:29 34.72739 -84.85946 1747 ft 87 kts 319°
2026-04-27 00:29 34.73170 -84.86460 1855 ft 84 kts 317°
2026-04-27 00:29 34.73532 -84.86945 2062 ft 73 kts 320°
2026-04-27 00:30 34.73882 -84.87385 2141 ft 76 kts 317°
2026-04-27 00:30 34.74274 -84.87872 2251 ft 81 kts 324°
2026-04-27 00:30 34.74707 -84.88337 2355 ft 83 kts 321°
2026-04-27 00:30 34.75132 -84.88802 2474 ft 85 kts 322°
2026-04-27 00:31 34.75543 -84.89437 2478 ft 104 kts 293°